Location: Bakhuizen
(52.8696°N, 5.4575°E)
Time: 08:36:47
(UTC+00:00)

Cosmos 2082 Rocket - Pass Details

Date: 11 May 2021
Orbit: 834 x 853 km, 71.0° (Epoch: 20 June)

Event Time Altitude Azimuth Distance (km) Brightness Sun altitude
Rises 21:34:39 0° 326° (NW) 3,394 7.3 -14.4°
Reaches altitude 10° 21:37:09 10° 322° (NW) 2,456 6.0 -14.6°
Maximum altitude 21:42:36 53° 247° (WSW) 1,020 2.6 -15.0°
Enters shadow 21:46:18 20° 178° (S) 1,830 3.4 -15.2°
